RRR7205 EGXW-LICZ

Flight info

Callsign RRR7205
Flight time N/A
Altitude 41000
Route D179F DCT UMBAG P155 SOMVA DCT REMBA M624 RITAX UT27 ROUSY DCT DEVDI DCT ODINA DCT OGLAK DCT OST DCT TAGEL DCT UXUTA
Aircraft R135/M-SDFGHRWY/LB1

Departure

Time N/A
Airport RAF Waddington (EGXW)

Arrival

Time 2026-05-05 14:28
Airport Sigonella Navy Air Base (LICZ)
Time Latitude Longitude Altitude Speed Heading
2026-05-05 13:47 41.02435 12.77534 41059 ft 484 kts 156°
2026-05-05 13:47 40.99424 12.79644 41067 ft 484 kts 155°
2026-05-05 13:47 40.93618 12.84015 41059 ft 481 kts 157°
2026-05-05 13:48 40.87787 12.88427 41067 ft 482 kts 157°
2026-05-05 13:48 40.81944 12.92808 41060 ft 484 kts 155°
2026-05-05 13:49 40.76054 12.97145 41063 ft 485 kts 153°
2026-05-05 13:49 40.70163 13.01435 41068 ft 486 kts 153°
2026-05-05 13:50 40.64272 13.05740 41066 ft 484 kts 155°
2026-05-05 13:50 40.58434 13.10065 41065 ft 483 kts 157°
2026-05-05 13:51 40.52566 13.14450 41074 ft 485 kts 158°
2026-05-05 13:51 40.46646 13.18849 41073 ft 488 kts 156°
2026-05-05 13:52 40.40724 13.23178 41075 ft 488 kts 154°
2026-05-05 13:52 40.34809 13.27440 41063 ft 491 kts 153°
2026-05-05 13:53 40.28843 13.31850 40717 ft 492 kts 160°
2026-05-05 13:53 40.25703 13.33572 40352 ft 485 kts 163°
2026-05-05 13:53 40.22613 13.35390 39998 ft 485 kts 158°
2026-05-05 13:54 40.19622 13.37334 39645 ft 479 kts 161°
2026-05-05 13:54 40.16570 13.39023 39280 ft 474 kts 162°
2026-05-05 13:54 40.13593 13.40935 38925 ft 473 kts 159°
2026-05-05 13:54 40.10604 13.42686 38530 ft 469 kts 163°
2026-05-05 13:55 40.07665 13.44422 38099 ft 471 kts 159°
2026-05-05 13:55 40.04750 13.46276 37687 ft 464 kts 162°
2026-05-05 13:55 40.01799 13.47917 37283 ft 460 kts 161°
2026-05-05 13:55 39.98927 13.49757 36886 ft 457 kts 159°
2026-05-05 13:56 39.96041 13.51422 36478 ft 451 kts 163°
2026-05-05 13:56 39.93188 13.53126 36092 ft 451 kts 159°
2026-05-05 13:56 39.90373 13.54882 35709 ft 445 kts 162°
2026-05-05 13:56 39.87529 13.56475 35330 ft 442 kts 161°
2026-05-05 13:57 39.84761 13.58226 34966 ft 439 kts 160°
2026-05-05 13:57 39.81986 13.59834 34600 ft 433 kts 163°
2026-05-05 13:57 39.79241 13.61451 34234 ft 432 kts 160°
2026-05-05 13:57 39.76581 13.63110 33855 ft 427 kts 162°
2026-05-05 13:58 39.73863 13.64638 33446 ft 423 kts 162°
2026-05-05 13:58 39.71204 13.66275 33044 ft 421 kts 160°
2026-05-05 13:58 39.68569 13.67847 32641 ft 415 kts 163°
2026-05-05 13:58 39.65938 13.69350 32252 ft 412 kts 161°
2026-05-05 13:59 39.60758 13.72455 31489 ft 414 kts 162°
2026-05-05 13:59 39.58075 13.74021 31130 ft 424 kts 160°
2026-05-05 14:00 39.52749 13.77173 30399 ft 417 kts 162°
2026-05-05 14:00 39.51004 13.78207 30158 ft 416 kts 160°
2026-05-05 14:00 39.47526 13.80308 29606 ft 410 kts 161°
2026-05-05 14:00 39.44948 13.81773 29193 ft 407 kts 161°
2026-05-05 14:01 39.42395 13.83325 28778 ft 406 kts 160°
2026-05-05 14:01 39.39821 13.84829 28362 ft 406 kts 161°
2026-05-05 14:01 39.37183 13.86351 27973 ft 419 kts 160°
2026-05-05 14:01 39.34547 13.87953 27585 ft 418 kts 160°
2026-05-05 14:02 39.31897 13.89473 27192 ft 414 kts 161°
2026-05-05 14:02 39.29282 13.91006 26816 ft 412 kts 159°
2026-05-05 14:02 39.26686 13.92563 26428 ft 409 kts 160°
2026-05-05 14:02 39.24083 13.94046 26060 ft 406 kts 160°
2026-05-05 14:03 39.21528 13.95561 25696 ft 404 kts 159°
2026-05-05 14:03 39.19010 13.97049 25342 ft 400 kts 160°
2026-05-05 14:03 39.16473 13.98493 24976 ft 398 kts 160°
2026-05-05 14:03 39.13966 13.99989 24624 ft 396 kts 159°
2026-05-05 14:04 39.11472 14.01446 24279 ft 393 kts 160°
2026-05-05 14:04 39.08972 14.02874 23931 ft 391 kts 159°
2026-05-05 14:04 39.06504 14.04345 23577 ft 388 kts 159°
2026-05-05 14:04 39.04052 14.05763 23172 ft 385 kts 160°
2026-05-05 14:05 39.01628 14.07154 22771 ft 384 kts 159°
2026-05-05 14:05 38.99219 14.08584 22379 ft 382 kts 159°
2026-05-05 14:05 38.96799 14.09975 22089 ft 378 kts 160°
2026-05-05 14:05 38.94383 14.11366 21816 ft 379 kts 159°
2026-05-05 14:06 38.91986 14.12778 21566 ft 379 kts 159°
2026-05-05 14:06 38.89577 14.14163 21311 ft 378 kts 160°
2026-05-05 14:06 38.87185 14.15543 21057 ft 376 kts 159°
2026-05-05 14:06 38.84805 14.16937 20815 ft 375 kts 160°
2026-05-05 14:07 38.82446 14.18288 20567 ft 374 kts 160°
2026-05-05 14:07 38.80074 14.19657 20323 ft 373 kts 159°
2026-05-05 14:07 38.77709 14.21039 19982 ft 373 kts 160°
2026-05-05 14:07 38.75342 14.22387 19624 ft 372 kts 160°
2026-05-05 14:08 38.72979 14.23752 19266 ft 371 kts 159°
2026-05-05 14:08 38.70633 14.25120 18912 ft 369 kts 160°
2026-05-05 14:08 38.68323 14.26429 18564 ft 367 kts 160°
2026-05-05 14:08 38.66003 14.27770 18184 ft 365 kts 159°
2026-05-05 14:09 38.63698 14.29120 17802 ft 363 kts 159°
2026-05-05 14:09 38.61404 14.30454 17410 ft 361 kts 160°
2026-05-05 14:09 38.59054 14.31491 17021 ft 354 kts 171°
2026-05-05 14:09 38.56649 14.31883 16631 ft 346 kts 183°
2026-05-05 14:10 38.54281 14.31623 16252 ft 338 kts 195°
2026-05-05 14:10 38.52049 14.30792 15884 ft 332 kts 203°
2026-05-05 14:10 38.49883 14.29778 15516 ft 330 kts 205°
2026-05-05 14:10 38.47693 14.28896 15287 ft 330 kts 196°
2026-05-05 14:11 38.45400 14.28624 15187 ft 335 kts 184°
2026-05-05 14:11 38.43065 14.28990 15128 ft 340 kts 173°
2026-05-05 14:11 38.40770 14.29674 14947 ft 343 kts 170°
2026-05-05 14:11 38.38465 14.30439 14705 ft 341 kts 169°
2026-05-05 14:12 38.36171 14.31200 14476 ft 339 kts 172°
2026-05-05 14:12 38.33855 14.31684 14235 ft 335 kts 177°
2026-05-05 14:12 38.31551 14.32031 13997 ft 334 kts 178°
2026-05-05 14:12 38.29245 14.32567 13748 ft 335 kts 172°
2026-05-05 14:13 38.26973 14.33192 13483 ft 332 kts 174°
2026-05-05 14:13 38.24692 14.33633 13229 ft 330 kts 175°
2026-05-05 14:13 38.22432 14.34174 12951 ft 331 kts 172°
2026-05-05 14:13 38.20184 14.34746 12698 ft 329 kts 174°
2026-05-05 14:14 38.17929 14.35211 12448 ft 327 kts 174°
2026-05-05 14:14 38.15692 14.35743 12195 ft 326 kts 172°
2026-05-05 14:14 38.13467 14.36291 11944 ft 324 kts 173°
2026-05-05 14:14 38.11245 14.36766 11696 ft 323 kts 174°
2026-05-05 14:15 38.09034 14.37285 11450 ft 323 kts 172°
2026-05-05 14:15 38.06835 14.37819 11241 ft 320 kts 173°
2026-05-05 14:15 38.04668 14.38293 11162 ft 320 kts 173°
2026-05-05 14:15 38.02479 14.38800 11119 ft 319 kts 172°
2026-05-05 14:16 38.00298 14.39323 11104 ft 319 kts 173°
2026-05-05 14:16 37.98117 14.39801 11067 ft 320 kts 173°
2026-05-05 14:16 37.95916 14.40317 11079 ft 321 kts 172°
2026-05-05 14:16 37.94462 14.40669 11079 ft 321 kts 172°
2026-05-05 14:17 37.92255 14.41165 11073 ft 321 kts 173°
2026-05-05 14:17 37.90054 14.41659 11063 ft 320 kts 173°
2026-05-05 14:17 37.87156 14.42346 11067 ft 321 kts 173°
2026-05-05 14:17 37.84958 14.42844 11074 ft 321 kts 173°
2026-05-05 14:18 37.82755 14.43343 11065 ft 320 kts 173°
2026-05-05 14:18 37.81279 14.43688 11062 ft 321 kts 173°
2026-05-05 14:18 37.79073 14.44193 10804 ft 322 kts 173°
2026-05-05 14:18 37.76938 14.44687 10378 ft 300 kts 173°
2026-05-05 14:19 37.74927 14.45135 9948 ft 294 kts 175°
2026-05-05 14:19 37.72897 14.45311 9483 ft 291 kts 180°
2026-05-05 14:19 37.70875 14.45451 9037 ft 290 kts 177°
2026-05-05 14:19 37.68874 14.45758 8594 ft 288 kts 175°
2026-05-05 14:20 37.66885 14.45968 8144 ft 286 kts 179°
2026-05-05 14:20 37.64906 14.46181 7679 ft 284 kts 171°
2026-05-05 14:20 37.63026 14.46919 7263 ft 285 kts 156°
2026-05-05 14:20 37.61292 14.48108 6963 ft 281 kts 150°
2026-05-05 14:21 37.59632 14.49393 6665 ft 281 kts 148°
2026-05-05 14:21 37.57991 14.50725 6401 ft 279 kts 146°
2026-05-05 14:21 37.56487 14.52224 6153 ft 277 kts 138°
2026-05-05 14:21 37.55104 14.53809 5890 ft 258 kts 138°
2026-05-05 14:22 37.53747 14.55191 5620 ft 246 kts 142°
2026-05-05 14:22 37.52406 14.56502 5360 ft 244 kts 140°
2026-05-05 14:22 37.51126 14.57878 5209 ft 240 kts 139°
2026-05-05 14:22 37.49847 14.59225 5138 ft 239 kts 141°
2026-05-05 14:23 37.48546 14.60521 5099 ft 238 kts 141°
2026-05-05 14:23 37.47264 14.61846 5086 ft 238 kts 140°
2026-05-05 14:23 37.45993 14.63187 5069 ft 238 kts 140°
2026-05-05 14:23 37.44720 14.64524 5057 ft 238 kts 136°
2026-05-05 14:24 37.43699 14.66156 4622 ft 233 kts 119°
2026-05-05 14:24 37.43144 14.67956 4322 ft 223 kts 107°
2026-05-05 14:24 37.42769 14.69843 4028 ft 222 kts 101°
2026-05-05 14:24 37.42581 14.71765 3793 ft 221 kts 97°
2026-05-05 14:25 37.42447 14.73698 3499 ft 221 kts 95°
2026-05-05 14:25 37.42358 14.75635 3183 ft 219 kts 96°
2026-05-05 14:25 37.42237 14.77453 2792 ft 203 kts 98°
2026-05-05 14:25 37.42033 14.79148 2349 ft 186 kts 103°
2026-05-05 14:26 37.41780 14.80743 1870 ft 181 kts 103°
2026-05-05 14:26 37.41553 14.82196 1487 ft 157 kts 101°
2026-05-05 14:26 37.41400 14.83485 1177 ft 138 kts 98°
2026-05-05 14:26 37.41283 14.84653 976 ft 138 kts 99°
2026-05-05 14:27 37.41121 14.85887 737 ft 146 kts 99°
2026-05-05 14:27 37.40965 14.87121 604 ft 138 kts 98°
2026-05-05 14:27 37.40828 14.88287 433 ft 137 kts 96°
2026-05-05 14:27 37.40686 14.89463 248 ft 133 kts 96°
2026-05-05 14:28 37.40554 14.90561 106 ft 119 kts 95°
2026-05-05 14:28 37.40461 14.91384 93 ft 67 kts 98°
2026-05-05 14:28 37.40418 14.91731 96 ft 19 kts 99°
2026-05-05 14:28 37.40442 14.91819 96 ft 8 kts 14°
2026-05-05 14:29 37.40499 14.91776 96 ft 11 kts 318°
2026-05-05 14:29 37.40554 14.91716 97 ft 12 kts 320°
2026-05-05 14:29 37.40610 14.91635 95 ft 12 kts 281°
2026-05-05 14:29 37.40622 14.91513 97 ft 16 kts 278°
2026-05-05 14:30 37.40633 14.91424 98 ft 13 kts 278°
2026-05-05 14:30 37.40643 14.91340 96 ft 3 kts 279°
2026-05-05 14:30 37.40644 14.91334 97 ft 0 kts 279°